Voltar ao catálogo

STARLINK-3887

AtivoComunicaçõesVLEO
NORAD 52484·PAYLOAD·🇺🇸 United States

Lançado May 6, 2022 de Cape Canaveral Space Force Station

Loading…

Próximas Passagens (próximas 24 horas)

TLE

AtualizadoSource: CelesTrak SupGP

Época: Sep 15, 2026, 02:51 UTC

1 52484C 22049AK  26258.11923611 -.00008148  00000+0 -23322-3 0  2582
2 52484  53.1580 278.7237 0001177  84.2969 315.4809 15.35390001    15

Acompanhe STARLINK-3887 em tempo real com AllMySat

Download on the App Store